TimeCDT,TemperatureF,Dew PointF,Humidity,Sea Level PressureIn,VisibilityMPH,Wind Direction,Wind SpeedMPH,Gust SpeedMPH,PrecipitationIn,Events,Conditions,WindDirDegrees,DateUTC
12:52 AM,12.9,9.0,84,29.70,-9999.0,NW,33.4,43.7,N/A,,Unknown,310,2013-03-18 05:52:00
1:52 AM,10.0,5.0,80,29.75,-9999.0,NW,35.7,44.9,N/A,,Unknown,310,2013-03-18 06:52:00
2:52 AM,9.0,5.0,84,29.78,-9999.0,NW,35.7,41.4,N/A,,Unknown,310,2013-03-18 07:52:00
3:52 AM,7.0,3.0,84,29.81,-9999.0,NW,29.9,41.4,N/A,,Unknown,320,2013-03-18 08:52:00
4:52 AM,7.0,3.0,84,29.82,-9999.0,NW,27.6,40.3,N/A,,Unknown,320,2013-03-18 09:52:00
5:52 AM,7.0,1.9,80,29.84,-9999.0,NW,29.9,39.1,N/A,,Unknown,310,2013-03-18 10:52:00
6:52 AM,3.9,-0.0,84,29.88,-9999.0,NW,29.9,39.1,N/A,,Unknown,310,2013-03-18 11:52:00
7:52 AM,1.9,-2.0,83,29.93,-9999.0,NW,26.5,33.4,N/A,,Unknown,310,2013-03-18 12:52:00
8:52 AM,1.9,-2.9,80,29.94,-9999.0,NW,27.6,-,N/A,,Unknown,310,2013-03-18 13:52:00
9:52 AM,3.0,-2.0,80,29.97,-9999.0,NW,26.5,34.5,N/A,,Unknown,310,2013-03-18 14:52:00
10:52 AM,5.0,-0.9,76,29.98,-9999.0,NW,28.8,35.7,N/A,,Unknown,310,2013-03-18 15:52:00
11:52 AM,7.0,1.0,77,30.00,-9999.0,NW,26.5,-,N/A,,Unknown,310,2013-03-18 16:52:00
12:52 PM,9.0,1.9,73,30.02,-9999.0,NW,29.9,35.7,N/A,,Unknown,320,2013-03-18 17:52:00
1:52 PM,10.0,3.0,73,30.04,-9999.0,NW,24.2,32.2,N/A,,Unknown,320,2013-03-18 18:52:00
2:52 PM,12.0,3.0,67,30.05,-9999.0,NW,24.2,28.8,N/A,,Unknown,310,2013-03-18 19:52:00
3:52 PM,12.0,3.0,67,30.04,-9999.0,NW,21.9,-,N/A,,Unknown,310,2013-03-18 20:52:00
4:52 PM,12.0,3.9,70,30.06,-9999.0,NW,23.0,-,N/A,,Unknown,320,2013-03-18 21:52:00
5:52 PM,12.9,3.9,67,30.06,-9999.0,NNW,13.8,-,N/A,,Unknown,330,2013-03-18 22:52:00
6:52 PM,12.0,3.0,67,30.06,-9999.0,NNW,6.9,-,N/A,,Unknown,330,2013-03-18 23:52:00
7:52 PM,8.1,1.9,76,30.07,-9999.0,WNW,4.6,-,N/A,,Unknown,300,2013-03-19 00:52:00
8:52 PM,5.0,-0.9,76,30.09,-9999.0,NW,4.6,-,N/A,,Unknown,310,2013-03-19 01:52:00
9:52 PM,3.9,-2.0,76,30.10,-9999.0,NNE,4.6,-,N/A,,Unknown,20,2013-03-19 02:52:00
10:52 PM,-0.0,-4.0,83,30.11,-9999.0,NNW,3.5,-,N/A,,Unknown,330,2013-03-19 03:52:00
11:52 PM,-0.9,-6.0,79,30.12,-9999.0,Calm,Calm,-,N/A,,Unknown,0,2013-03-19 04:52:00